[[{"header":{"parameterUnit":"m.s-1","parameterCategory":1,"la1":30.2991,"la2":30.254,"lo1":-89.0895,"lo2":-89.0444,"dy":0.0017,"dx":0.0017,"nx":28,"ny":28,"refTime":"2023-08-20T21:00:00:Z","depth":0,"parameterNumber":2,"parameterNumberName":"U-component_of_WINDS"},"data":[0,0,0,0,0,0,0,0,0,0,0,0,0,0,0,0,0,0,0,0,0,0,0,0,0,0,0,0,0,0,0,0,0,0,0,0,0,0,0,0,0,0,0,0,0,0,0,0,0,0,0,0,0,0,0,0,0,0,0.9932,0.9934,0,1.0094,1.0095,1.0097,1.0154,1.0153,1.0153,1.0152,1.0319,1.0323,1.0328,0,0,0,0,0,0,0,0,0,0,0,0,0,0.967,0.9675,0.9932,0.9934,0.9936,1.0093,1.0095,1.0098,1.0154,1.0153,1.0152,1.0152,1.0317,1.0323,1.0329,0,0,0,0,0,0,0,0,0,0,0,0,0,0.9803,0.9676,0.9931,0.9983,0.9989,1.0093,1.0096,1.0098,1.0154,1.0153,1.0152,1.0151,1.0315,1.0322,1.033,1.0394,0,0,1.0353,1.0356,0,0,0,0,0,0,0,0,0.9796,0.9813,0.9973,0.9979,0.9987,1.0103,1.0064,1.0198,1.0154,1.0091,1.0152,1.0151,1.0247,1.026,1.0293,1.0402,1.0409,1.0353,1.0358,1.0361,1.0363,0,0,0,0,0,0,0,0.9786,0.9806,0.9996,0.9975,0.9984,0.9997,1.0015,1.009,1.0173,1.0097,1.0101,1.012,1.0251,1.0285,1.0297,1.0412,1.0353,1.036,1.0364,1.0367,1.058,1.0581,0,0,0,0,0,0,0.9768,0.9798,0.9991,1.0001,0.9887,1.0003,1.0023,1.0066,1.0172,1.0187,1.012,1.0122,1.0273,1.0288,1.0303,1.0384,1.0361,1.0368,1.0372,1.0579,1.058,1.0581,0,0,0,0,0,0,0.9763,0.9785,0.9984,0.9901,0.9927,1.0008,1.0057,1.007,1.0105,1.019,1.0205,1.014,1.0273,1.0293,1.0371,1.0391,1.0371,1.0378,1.0577,1.0579,1.0581,1.0548,0,0,0,0,0,0,0.9755,0.9783,0.9809,0.9901,0.9931,1.0049,1.0058,1.0074,1.0117,1.0121,1.0213,1.0227,1.0274,1.0359,1.0378,1.0401,1.0384,1.0576,1.0578,1.058,1.0548,1.0548,1.0549,0,0,0,0,0,0.9745,0.9794,0.981,0.9833,0.9965,1.005,1.0068,1.012,1.0119,1.0145,1.0199,1.0224,1.0386,1.0367,1.0389,1.0414,1.0575,1.0577,1.058,1.0547,1.0548,1.0549,0,0,0,0,0,0,0.9703,0.9807,0.9826,0.9905,0.9968,1.0059,1.0094,1.012,1.0185,1.0185,1.0248,1.0269,1.0341,1.0386,1.0363,1.0481,1.0482,1.0489,1.0449,1.0451,1.0451,1.0439,1.039,0,0,0,0,0,0.9702,0.9763,0.985,0.9912,0.9943,1.0013,1.0052,1.0087,1.0155,1.0182,1.0242,1.0307,1.0372,1.0414,1.0479,1.0554,1.0574,1.0582,1.0583,1.0583,1.0588,1.0629,1.0633,1.059,1.059,1.059,0,0,0.9702,0.9767,0.9801,0.9905,0.9958,1.0018,1.0035,1.0099,1.0144,1.0192,1.0268,1.0314,1.0391,1.0467,1.0504,1.0506,1.0605,1.0586,1.0586,1.0591,1.0632,1.0636,1.064,1.0591,1.0591,1.0591,0,0,0.9733,0.9789,0.9845,0.9897,0.9977,1.0023,1.0036,1.0124,1.0156,1.0234,1.027,1.0324,1.0436,1.0488,1.053,1.0578,1.0602,1.0597,1.0601,1.064,1.0643,1.0647,1.0662,1.0667,1.0602,1.0602,1.0602,0,0.9724,0.9817,0.9871,0.9932,0.9976,1.0021,1.0078,1.0126,1.0223,1.0252,1.0253,1.0392,1.0448,1.0535,1.0547,1.0579,1.0595,1.0587,1.0638,1.0642,1.0646,1.0662,1.0668,1.0601,1.0601,1.0601,1.0601,0,0.98,0.9863,0.9899,0.999,1.0038,1.0097,1.016,1.0202,1.0232,1.0277,1.0355,1.0422,1.05,1.0523,1.0554,1.0615,1.0614,1.0626,1.0628,1.0648,1.0664,1.067,1.0599,1.0599,1.06,1.06,0,0,0.9809,0.9928,0.9941,0.9982,1.0072,1.0122,1.0182,1.0258,1.0291,1.0356,1.0407,1.0499,1.051,1.0557,1.0594,1.0628,1.0659,1.0636,1.0638,1.0637,1.0729,1.0719,1.0725,1.0676,1.0678,1.0679,1.0722,0,0.9851,0.9961,1.001,1.0097,1.0155,1.0198,1.025,1.031,1.0354,1.0409,1.0457,1.0521,1.0531,1.0559,1.0595,1.0648,1.0679,1.0646,1.0724,1.0726,1.0703,1.0734,1.0724,1.0762,1.0729,1.073,1.0731,0,0.9915,0.9978,1.0071,1.0152,1.0178,1.0224,1.0296,1.0349,1.0418,1.0447,1.0498,1.0532,1.0596,1.0593,1.0681,1.0657,1.0692,1.0722,1.0725,1.0734,1.0729,1.0743,1.0775,1.078,1.0741,1.074,1.074,0,0.9911,1.002,1.0088,1.0122,1.0219,1.025,1.0292,1.036,1.0401,1.0464,1.0492,1.0561,1.06,1.0652,1.0704,1.0698,1.0787,1.0789,1.0812,1.081,1.0829,1.0827,1.0867,1.0852,1.0852,1.0852,1.0852,0,0.9952,1.0006,1.0088,1.013,1.0191,1.0248,1.0307,1.0352,1.0411,1.0462,1.0503,1.055,1.0616,1.0671,1.0712,1.0778,1.0795,1.082,1.083,1.0816,1.0813,1.084,1.0838,1.0853,1.0853,1.0853,1.0852,0,0.9958,1.0015,1.0092,1.0177,1.0199,1.0241,1.0313,1.0355,1.04,1.0464,1.0482,1.0552,1.0619,1.0676,1.0764,1.0791,1.0859,1.0871,1.0835,1.0841,1.086,1.0857,1.0918,1.0929,1.0907,1.0907,1.0907,0,0.998,1.0023,1.0111,1.0148,1.0189,1.0248,1.0291,1.0347,1.0389,1.0469,1.0501,1.0571,1.0629,1.0733,1.0792,1.0859,1.0873,1.089,1.0884,1.0867,1.0872,1.0869,1.0873,1.089,1.089,1.089,1.089,0,1.0013,1.0038,1.0098,1.0167,1.0216,1.0273,1.0331,1.0359,1.0425,1.0471,1.0539,1.0584,1.0673,1.0741,1.0814,1.0856,1.0884,1.0891,1.09,1.0886,1.0863,1.0874,1.0835,1.089,1.089,1.089,1.089,1.089,1.0027,1.0066,1.0134,1.0199,1.0248,1.0301,1.0344,1.0393,1.0451,1.0528,1.0557,1.0627,1.0692,1.0793,1.0835,1.089,1.0894,1.0907,1.091,1.0913,1.091,1.0854,1.0904,1.0904,1.0904,1.0904,1.0904,0,1.0061,1.0107,1.0165,1.0244,1.0295,1.0316,1.0381,1.0421,1.0481,1.054,1.0596,1.0674,1.0739,1.0802,1.0871,1.0902,1.0916,1.0918,1.0916,1.0925,1.0903,1.0888,1.0905,1.0905,1.0905,1.0905,1.0905,1.0905,1.0085,1.0151,1.0185,1.0276,1.0321,1.0389,1.0424,1.0472,1.0519,1.0604,1.0658,1.0699,1.0759,1.0832,1.0892,1.0909,1.0932,1.093,1.095,1.0928,1.0927,1.0926,1.0912,1.0935,1.0935,1.0968,1.0969,1.0969]},{"header":{"parameterUnit":"m.s-1","parameterCategory":1,"la1":30.2991,"la2":30.254,"lo1":-89.0895,"lo2":-89.0444,"dy":0.0017,"dx":0.0017,"nx":28,"ny":28,"refTime":"2023-08-20T21:00:00:Z","depth":0,"parameterNumber":3,"parameterNumberName":"V-component_of_WINDS"},"data":[0,0,0,0,0,0,0,0,0,0,0,0,0,0,0,0,0,0,0,0,0,0,0,0,0,0,0,0,0,0,0,0,0,0,0,0,0,0,0,0,0,0,0,0,0,0,0,0,0,0,0,0,0,0,0,0,0,0,3.026,3.026,0,3.0269,3.027,3.027,3.0301,3.0302,3.0302,3.0303,3.031,3.0309,3.0309,0,0,0,0,0,0,0,0,0,0,0,0,0,3.0264,3.0264,3.026,3.026,3.026,3.0269,3.027,3.027,3.0301,3.0302,3.0302,3.0303,3.031,3.0309,3.0309,0,0,0,0,0,0,0,0,0,0,0,0,0,3.0266,3.0263,3.026,3.0277,3.0278,3.0269,3.027,3.027,3.0301,3.0302,3.0303,3.0304,3.031,3.0309,3.0309,3.0283,0,0,3.0306,3.0306,0,0,0,0,0,0,0,0,3.0266,3.0266,3.0274,3.0275,3.0277,3.0285,3.0274,3.0274,3.03,3.0292,3.0303,3.0304,3.03,3.0301,3.03,3.0283,3.0284,3.0306,3.0306,3.0306,3.0305,0,0,0,0,0,0,0,3.0266,3.0266,3.0263,3.0274,3.0276,3.0282,3.0284,3.0274,3.029,3.0293,3.0295,3.0296,3.0301,3.0301,3.03,3.0284,3.0306,3.0306,3.0305,3.0305,3.0244,3.0242,0,0,0,0,0,0,3.0264,3.0266,3.0263,3.0264,3.0274,3.0281,3.0283,3.0281,3.029,3.0293,3.0295,3.0297,3.0301,3.0301,3.0301,3.0269,3.0306,3.0305,3.0305,3.0245,3.0243,3.0242,0,0,0,0,0,0,3.0264,3.0263,3.0263,3.0265,3.0266,3.028,3.0278,3.0281,3.028,3.0292,3.0295,3.0291,3.0302,3.0302,3.0287,3.027,3.0305,3.0304,3.0246,3.0244,3.0243,3.0207,0,0,0,0,0,0,3.0264,3.0263,3.0255,3.0265,3.0266,3.025,3.0277,3.0281,3.0279,3.0282,3.0289,3.0291,3.0303,3.0288,3.0286,3.0269,3.0303,3.0248,3.0245,3.0243,3.0209,3.0204,3.0199,0,0,0,0,0,3.0264,3.0244,3.0254,3.0254,3.0255,3.0249,3.0249,3.0264,3.0278,3.0268,3.0276,3.0291,3.0272,3.0286,3.0284,3.0267,3.0249,3.0246,3.0243,3.0212,3.0205,3.0199,0,0,0,0,0,0,3.0231,3.0246,3.0257,3.024,3.0243,3.0254,3.0243,3.0256,3.0254,3.0257,3.0274,3.0276,3.0257,3.0261,3.0276,3.0241,3.0263,3.026,3.0239,3.0233,3.0228,3.0226,3.0303,0,0,0,0,0,3.0222,3.0216,3.023,3.0213,3.0214,3.0228,3.0226,3.0237,3.024,3.0241,3.0247,3.0249,3.0243,3.0239,3.0234,3.0211,3.0211,3.0198,3.0193,3.0189,3.0185,3.017,3.0163,3.0233,3.0233,3.0233,0,0,3.0202,3.021,3.0206,3.0207,3.021,3.0202,3.0229,3.022,3.0214,3.0239,3.0225,3.023,3.0232,3.0212,3.0204,3.0215,3.0166,3.0185,3.0182,3.018,3.0166,3.016,3.0154,3.0231,3.0232,3.0232,0,0,3.0163,3.0169,3.0155,3.0158,3.0163,3.0173,3.0169,3.0178,3.0182,3.0168,3.0186,3.0179,3.0169,3.0169,3.0168,3.0127,3.014,3.0126,3.0098,3.0083,3.0077,3.0072,3.0055,3.0049,3.0122,3.0122,3.0122,0,3.0138,3.0128,3.0146,3.0136,3.0134,3.0158,3.0143,3.0144,3.0147,3.0145,3.0158,3.0145,3.0148,3.0127,3.0117,3.0116,3.0111,3.0124,3.0077,3.0072,3.0068,3.0051,3.0045,3.012,3.012,3.0121,3.0121,0,3.0096,3.0089,3.0077,3.0079,3.0077,3.0064,3.0078,3.0074,3.0084,3.0092,3.0076,3.0081,3.0077,3.0073,3.0084,3.0053,3.0059,3.0074,3.0096,3.0059,3.0043,3.0037,3.0117,3.0118,3.0119,3.0119,0,0,3.0035,3.0047,3.0042,3.0042,3.0049,3.0043,3.0031,3.0027,3.0021,3.0023,3.001,3.0001,3.0015,3.0013,3.0024,3.0012,2.9975,3.0028,3.0028,3.0015,2.9937,2.9924,2.9917,2.9985,2.9984,2.9983,2.9936,0,2.9995,2.9975,2.999,2.9967,2.9959,2.998,2.9969,2.9971,2.9977,2.997,2.9977,2.9969,2.9989,2.9988,2.9976,2.9982,2.9959,2.9986,2.9971,2.997,2.9967,2.9909,2.9895,2.9851,2.9931,2.993,2.9929,0,2.9946,2.9945,2.9921,2.9927,2.9924,2.9914,2.9911,2.9905,2.9907,2.9912,2.991,2.9923,2.9909,2.9932,2.9911,2.9929,2.9923,2.9925,2.9924,2.9921,2.9945,2.9902,2.9838,2.983,2.992,2.9921,2.9922,0,2.99,2.9893,2.9877,2.9877,2.9885,2.9877,2.9879,2.9883,2.9879,2.9876,2.9873,2.9868,2.9865,2.986,2.987,2.9887,2.9847,2.9871,2.9848,2.9848,2.9837,2.9837,2.9768,2.9838,2.9838,2.9839,2.9839,0,2.9853,2.9836,2.9856,2.9846,2.9827,2.9844,2.9825,2.983,2.9832,2.9821,2.9841,2.983,2.9847,2.9837,2.9845,2.9825,2.9824,2.9826,2.9828,2.9822,2.9822,2.9817,2.982,2.9837,2.9837,2.9838,2.9838,0,2.9797,2.9811,2.9794,2.9803,2.9805,2.979,2.9797,2.9787,2.9795,2.9781,2.9779,2.979,2.9779,2.9791,2.9781,2.9786,2.9758,2.9766,2.9757,2.9758,2.9733,2.9734,2.9657,2.9647,2.9726,2.9725,2.9725,0,2.9765,2.9753,2.976,2.9755,2.9757,2.9749,2.9745,2.9761,2.9756,2.9756,2.9745,2.9736,2.973,2.9712,2.9718,2.971,2.9716,2.9689,2.9714,2.9709,2.9711,2.9711,2.9708,2.9683,2.9682,2.9681,2.9681,0,2.9705,2.9712,2.9706,2.9702,2.9697,2.9695,2.9694,2.9688,2.9704,2.9697,2.9687,2.9682,2.9672,2.9662,2.9656,2.9657,2.967,2.9673,2.9667,2.966,2.9654,2.9654,2.974,2.9674,2.9675,2.9675,2.9676,2.9676,2.9658,2.9647,2.965,2.9643,2.9644,2.9642,2.9632,2.9638,2.9631,2.9624,2.9634,2.962,2.962,2.9613,2.9612,2.96,2.9611,2.9603,2.96,2.9597,2.9592,2.9658,2.96,2.96,2.96,2.96,2.9601,0,2.9596,2.9599,2.9592,2.959,2.9583,2.9599,2.9598,2.9591,2.9579,2.9579,2.9572,2.9559,2.9549,2.9554,2.9545,2.9534,2.954,2.9531,2.953,2.9529,2.9585,2.9589,2.9526,2.9526,2.9526,2.9526,2.9526,2.9526,2.9563,2.9544,2.9551,2.9533,2.9536,2.9523,2.9521,2.9518,2.9518,2.9503,2.9495,2.9499,2.95,2.9491,2.9481,2.9483,2.9477,2.9465,2.9468,2.9519,2.9526,2.9533,2.9538,2.9464,2.9464,2.9414,2.9413,2.9413]}]]